• Join FlightAware (Why Join?)
  • Login
  • US Flag 
06:46PM EST


 

Airport Tracker/Info


-or-


 

Live Flight TrackerFlight Track Log ✈ XOJ552 ✈ 04-Feb-2014 ✈ KLAS - KPVU

Flight Track Log - Related Links

Times and Time Zones

All times are in EST time to prevent confusion due to time zone crossing. See the XOJ552 flight status page for this flight to view local times or setup timezone preferences in your user account.

Time Position Orientation Groundspeed Altitude Reporting Facility
EST Latitude Longitude Course Direction KTS MPH feet Rate Location/Type
09:03PM 36.0761 -115.1789 269° West 185 213 4,700  Level Los Angeles Center
09:03PM 36.0756 -115.2300 269° West 209 241 7,800 4,623 Climbing Los Angeles Center
09:04PM 36.0758 -115.2561 271° West 232 267 9,400 5,419 Climbing Los Angeles Center
09:04PM 36.1050 -115.2914 316° Northwest 230 265 13,400 4,743 Climbing Los Angeles Center
09:06PM 36.1708 -115.2611 20° North 276 318 17,700 2,710 Climbing Los Angeles Center
09:07PM 36.1964 -115.1628 72° East 318 366 19,000 1,122 Climbing Los Angeles Center
09:08PM 36.1981 -115.0417 89° East 346 398 20,000 1,610 Climbing Los Angeles Center
09:09PM 36.1989 -114.9022 90° East 394 453 22,300 2,516 Climbing Los Angeles Center
09:10PM 36.2456 -114.7406 70° East 432 497 25,200 2,516 Climbing Los Angeles Center
09:11PM 36.3386 -114.6492 38° Northeast 428 493 27,500 2,146 Climbing Los Angeles Center
09:12PM 36.4369 -114.5564 37° Northeast 440 506 29,600 1,511 Climbing Los Angeles Center
09:13PM 36.5394 -114.4583 38° Northeast 457 526 30,900 618 Climbing Los Angeles Center
09:14PM 36.6794 -114.3494 32° Northeast 486 559 31,000 48 Climbing Los Angeles Center
09:15PM 36.7975 -114.2586 32° Northeast 498 573 31,000  Level Los Angeles Center
09:16PM 36.9364 -114.1503 32° Northeast 493 567 31,000  Level Los Angeles Center
09:17PM 37.0531 -114.0592 32° Northeast 494 568 31,000  Level Los Angeles Center
09:18PM 37.1689 -113.9697 32° Northeast 492 566 31,000  Level Los Angeles Center
09:19PM 37.2822 -113.8803 32° Northeast 485 558 31,000  Level Los Angeles Center
09:20PM 37.3908 -113.7942 32° Northeast 482 555 31,000  Level Los Angeles Center
09:21PM 37.5058 -113.7039 32° Northeast 485 558 31,000  Level Los Angeles Center
09:22PM 37.6194 -113.6133 32° Northeast 483 556 31,000  Level Los Angeles Center
09:23PM 37.7100 -113.5400 33° Northeast 483 556 31,000  Level Salt Lake Center
09:24PM 37.8242 -113.4483 32° Northeast 483 556 31,000  Level Salt Lake Center
09:25PM 37.9625 -113.3381 32° Northeast 485 558 31,000  Level Salt Lake Center
09:26PM 38.0767 -113.2453 33° Northeast 485 558 31,000  Level Salt Lake Center
09:27PM 38.1911 -113.1525 32° Northeast 485 558 31,000  Level Salt Lake Center
09:28PM 38.3044 -113.0594 33° Northeast 484 557 31,000  Level Salt Lake Center
09:29PM 38.4200 -112.9781 29° Northeast 479 551 31,000 -244 Level Salt Lake Center
09:30PM 38.5392 -112.9172 22° Northeast 466 536 30,500 -689 Descending Salt Lake Center
09:31PM 38.6550 -112.8550 23° Northeast 455 524 29,600 -927 Descending Salt Lake Center
09:32PM 38.7686 -112.7919 23° Northeast 449 517 28,600 -976 Descending Salt Lake Center
09:33PM 38.8806 -112.7297 23° Northeast 441 507 27,600 -1,328 Descending Salt Lake Center
09:34PM 38.9914 -112.6692 23° Northeast 436 502 25,900 -2,000 Descending Salt Lake Center
09:35PM 39.1175 -112.5981 24° Northeast 419 482 23,500 -2,049 Descending Salt Lake Center
09:36PM 39.2189 -112.5417 23° Northeast 403 464 21,700 -1,525 Descending Salt Lake Center
09:37PM 39.3119 -112.4897 23° Northeast 391 450 20,400 -1,610 Descending Salt Lake Center
09:38PM 39.4050 -112.4392 23° Northeast 372 428 18,400 -1,902 Descending Salt Lake Center
09:39PM 39.4975 -112.3892 23° Northeast 362 417 16,500 -1,902 Descending Salt Lake Center
09:40PM 39.5911 -112.3367 23° Northeast 367 422 14,500 -1,707 Descending Salt Lake Center
09:41PM 39.6831 -112.2861 23° Northeast 361 415 13,000 -1,230 Descending Salt Lake Center
09:42PM 39.7889 -112.2244 24° Northeast 350 403 12,000 -492 Descending Salt Lake Center
09:43PM 39.8761 -112.1744 24° Northeast 344 396 12,000  Level Salt Lake Center
09:44PM 39.9172 -112.1633 12° North 347 399 12,000  Level Salt Lake Center
09:44PM 39.9653 -112.1233 33° Northeast 350 403 12,000 -537 Level Salt Lake Center
09:45PM 40.0133 -112.1058 16° North 345 397 11,400 -1,279 Descending Salt Lake Center
09:45PM 40.0517 -112.0725 34° Northeast 342 394 10,700 -1,377 Descending Salt Lake Center
09:46PM 40.1000 -112.0544 16° North 330 380 10,000 -689 Descending Salt Lake Center
09:46PM 40.1342 -112.0258 33° Northeast 326 375 10,000 -358 Level Salt Lake Center
09:47PM 40.1908 -112.0128 10° North 289 333 9,600 -677 Descending Salt Lake Center
09:48PM 40.2131 -111.9972 28° Northeast 284 327 9,300 -590 Descending Salt Lake Center
09:48PM 40.2644 -111.9822 13° North 271 312 9,000 -295 Descending Salt Lake Center
09:49PM 40.2856 -111.9692 25° Northeast 272 313 9,000  Level Salt Lake Center
09:49PM 40.3286 -111.9578 11° North 270 311 9,000  Level Salt Lake Center
09:50PM 40.3511 -111.9361 36° Northeast 240 276 9,000 -295 Level Salt Lake Center
09:50PM 40.3794 -111.9097 35° Northeast 228 262 8,700 -581 Descending Salt Lake Center
09:51PM 40.3811 -111.8722 87° East 238 274 8,400 -1,082 Descending Salt Lake Center
09:51PM 40.3492 -111.8439 146° Southeast 237 273 7,600 -1,574 Descending Salt Lake Center
09:52PM 40.3211 -111.8139 141° Southeast 225 259 6,800 -1,279 Descending Salt Lake Center
09:52PM 40.2997 -111.8017 156° South 198 228 6,300 -1,082 Descending Salt Lake Center
09:53PM 40.2789 -111.7758 137° Southeast 195 224 5,700 -982 Descending Salt Lake Center
09:53PM 40.2656 -111.7711 165° South 158 182 5,400 -774 Descending Salt Lake Center
09:54PM 40.2467 -111.7472 136° Southeast 148 170 4,900 -600 Descending Salt Lake Center
09:55PM 40.2153 -111.7211 148° Southeast 141 162 4,400 -492 Descending Salt Lake Center
09:57PM 40.2167 -111.7167 North  Level FlightAware Approximate